Satellite-Ground Cal/Val Region Overpasses Predictions

Prediction of Satellite NPP Overpassing Cal/Val Region: PacNW

Region Location: (Latitude: 10.00, Longitude: 139.50) to (Latitude: 22.70, Longitude: 165.60).

Table of predicted overpasses for the next 14.0 days since TLE Epoch: 4/11/2015
Interval Starting Time Starting Location Ending Time Ending Location
1 04/12/2015 02:38:17 ( 10.04, 161.51) 04/12/2015 02:41:52 ( 22.67, 158.52)
2 04/12/2015 15:10:09 ( 22.70, 158.74) 04/12/2015 15:13:45 ( 10.02, 155.73)
3 04/13/2015 02:20:03 ( 12.98, 165.60) 04/13/2015 02:22:48 ( 22.67, 163.28)
4 04/13/2015 04:00:43 ( 10.06, 140.90) 04/13/2015 04:02:25 ( 16.05, 139.51)
5 04/13/2015 14:51:05 ( 22.70, 163.50) 04/13/2015 14:54:41 ( 10.02, 160.49)
6 04/14/2015 03:41:40 ( 10.06, 145.66) 04/14/2015 03:45:15 ( 22.68, 142.66)
7 04/14/2015 14:35:12 ( 11.55, 165.60) 04/14/2015 14:35:38 ( 10.02, 165.25)
8 04/14/2015 16:13:32 ( 22.69, 142.88) 04/14/2015 16:17:08 ( 10.00, 139.87)
9 04/15/2015 03:22:36 ( 10.06, 150.42) 04/15/2015 03:26:11 ( 22.68, 147.42)
10 04/15/2015 15:54:28 ( 22.68, 147.64) 04/15/2015 15:58:04 ( 10.00, 144.63)
11 04/16/2015 03:03:33 ( 10.06, 155.18) 04/16/2015 03:07:08 ( 22.68, 152.18)
12 04/16/2015 15:35:25 ( 22.68, 152.40) 04/16/2015 15:39:01 ( 10.00, 149.39)
13 04/17/2015 02:44:29 ( 10.00, 159.95) 04/17/2015 02:48:05 ( 22.68, 156.94)
14 04/17/2015 15:16:21 ( 22.68, 157.16) 04/17/2015 15:19:56 ( 10.06, 154.17)
15 04/18/2015 02:25:25 ( 10.01, 164.71) 04/18/2015 02:29:01 ( 22.69, 161.70)
16 04/18/2015 14:57:18 ( 22.68, 161.92) 04/18/2015 15:00:53 ( 10.05, 158.93)
17 04/19/2015 03:47:52 ( 10.02, 144.09) 04/19/2015 03:51:27 ( 22.65, 141.10)
18 04/19/2015 14:39:30 ( 18.21, 165.59) 04/19/2015 14:41:49 ( 10.05, 163.69)
19 04/19/2015 16:19:44 ( 22.66, 141.30) 04/19/2015 16:21:51 ( 15.21, 139.50)
20 04/20/2015 03:28:48 ( 10.03, 148.85) 04/20/2015 03:32:23 ( 22.65, 145.86)
21 04/20/2015 16:00:41 ( 22.65, 146.06) 04/20/2015 16:04:16 ( 10.03, 143.07)
22 04/21/2015 03:09:45 ( 10.03, 153.61) 04/21/2015 03:13:20 ( 22.66, 150.62)
23
